Regional Weather Roundup
Issued by NWS Raleigh/Durham, NC

Home | Current Version | Previous Version | Text Only | Print | Product List | Glossary On
Versions: 1 2 3 4 5 6 7 8 9 10 11 12 13 14 15 16 17 18 19 20 21 22 23 24 25 26 27 28
000
ASUS42 KRAH 190210
RWRRAH
NORTH CAROLINA WEATHER ROUNDUP
NATIONAL WEATHER SERVICE RALEIGH NC
1000 PM EDT FRI APR 18 2014

NOTE: "FAIR" INDICATES FEW OR NO CLOUDS BELOW 12,000 FEET WITH NO
SIGNIFICANT WEATHER AND/OR OBSTRUCTIONS TO VISIBILITY.

NCZ001-053-055-056-065-067-190300-
WESTERN NORTH CAROLINA

CITY           SKY/WX    TMP DP  RH WIND       PRES   REMARKS
ASHEVILLE      LGT RAIN  47  44  90 N3        30.24S
JEFFERSON      CLOUDY    49  34  57 CALM      30.26S
MORGANTON      LGT RAIN  48  48  99 CALM      30.30S
HICKORY        LGT RAIN  48  46  93 CALM      30.26R FOG
RUTHERFORDTON  RAIN      47  46  93 N7        30.25S
MOUNT AIRY     CLOUDY    51  43  73 CALM      30.27S
BOONE          CLOUDY    45  37  76 CALM      30.26F
$$

NCZ021-022-025-041-071-084-088-190300-
CENTRAL NORTH CAROLINA

CITY           SKY/WX    TMP DP  RH WIND       PRES   REMARKS
CHARLOTTE      RAIN      48  47  96 N13       30.24F FOG
GREENSBORO     LGT RAIN  52  41  66 N3        30.27S
WINSTON-SALEM  LGT RAIN  50  43  77 NE3       30.29R
RALEIGH-DURHAM LGT RAIN  52  45  77 CALM      30.28R
FORT BRAGG     RAIN      53  50  89 N6        30.25S
FAYETTEVILLE   LGT RAIN  54  50  86 N10       30.24S
CHAPEL HILL    LGT RAIN  51  47  86 N3        30.27S
BURLINGTON     LGT RAIN  51  44  77 CALM      30.27S
LAURINBURG     LGT RAIN  52  51  97 NE12      30.23S
$$

NCZ011-015-027-028-043-044-047-080-103-190300-
NORTHEASTERN NORTH CAROLINA

CITY           SKY/WX    TMP DP  RH WIND       PRES   REMARKS
ROCKY MT-WILSO CLOUDY    56  43  61 NE7       30.28R
GREENVILLE     CLOUDY    54  45  71 E6        30.28R
WASHINGTON     CLOUDY    53  46  79 NE5       30.27S
ELIZABETH CITY CLOUDY    46  43  87 NE12      30.29F
MANTEO         CLOUDY    46  45  93 NE10      30.27F
CAPE HATTERAS  CLOUDY    50  49  96 NE15G24   30.22F
$$

NCZ078-087-090-091-093-098-101-190300-
SOUTHEASTERN NORTH CAROLINA

CITY           SKY/WX    TMP DP  RH WIND       PRES   REMARKS
LUMBERTON      RAIN      54  51  90 NE7       30.22R FOG
GOLDSBORO      LGT RAIN  57  52  84 E8        30.25R
KENANSVILLE    RAIN      54  51  92 E5        30.26S
NEW BERN       RAIN      53  48  83 NE9       30.27R
CHERRY POINT   LGT RAIN  52  46  80 NE15      30.24S
BEAUFORT       LGT RAIN  53  49  86 NE13      30.22S
JACKSONVILLE   RAIN      53  53 100 N9        30.25R
WILMINGTON     LGT RAIN  55  52  89 NE16      30.21F FOG
$$




USA.gov is the U.S. government's official web portal to all federal, state and local government web resources and services.